TimeEDT,TemperatureF,Dew PointF,Humidity,Sea Level PressureIn,VisibilityMPH,Wind Direction,Wind SpeedMPH,Gust SpeedMPH,PrecipitationIn,Events,Conditions,WindDirDegrees,DateUTC
12:57 AM,62.1,54.0,75,30.19,10.0,North,5.8,-,N/A,,Clear,10,2013-09-19 04:57:00
1:57 AM,61.0,54.0,78,30.19,10.0,North,4.6,-,N/A,,Clear,10,2013-09-19 05:57:00
2:57 AM,61.0,55.0,81,30.18,10.0,North,5.8,-,N/A,,Clear,10,2013-09-19 06:57:00
3:57 AM,61.0,55.9,83,30.17,10.0,North,6.9,-,N/A,,Clear,10,2013-09-19 07:57:00
4:57 AM,61.0,55.9,83,30.17,10.0,NNE,6.9,-,N/A,,Clear,20,2013-09-19 08:57:00
5:57 AM,62.1,55.9,80,30.17,10.0,NNE,8.1,-,N/A,,Clear,20,2013-09-19 09:57:00
6:57 AM,62.1,54.0,75,30.18,10.0,NNE,5.8,-,N/A,,Clear,20,2013-09-19 10:57:00
7:57 AM,63.0,54.0,72,30.19,10.0,North,4.6,-,N/A,,Mostly Cloudy,360,2013-09-19 11:57:00
8:57 AM,69.1,55.0,61,30.19,10.0,North,6.9,-,N/A,,Scattered Clouds,10,2013-09-19 12:57:00
9:57 AM,72.0,52.0,49,30.19,10.0,NE,8.1,-,N/A,,Scattered Clouds,50,2013-09-19 13:57:00
10:57 AM,73.9,50.0,43,30.20,10.0,NE,10.4,-,N/A,,Scattered Clouds,50,2013-09-19 14:57:00
11:57 AM,75.9,52.0,43,30.19,10.0,NE,5.8,-,N/A,,Clear,40,2013-09-19 15:57:00
12:57 PM,77.0,53.1,43,30.17,10.0,Variable,5.8,-,N/A,,Clear,0,2013-09-19 16:57:00
1:57 PM,79.0,51.1,38,30.16,10.0,NE,9.2,-,N/A,,Clear,40,2013-09-19 17:57:00
2:57 PM,79.0,50.0,36,30.14,10.0,Variable,4.6,-,N/A,,Clear,0,2013-09-19 18:57:00
3:57 PM,80.1,48.9,34,30.12,10.0,Variable,3.5,-,N/A,,Clear,0,2013-09-19 19:57:00
4:57 PM,78.1,50.0,37,30.11,10.0,SSE,3.5,-,N/A,,Clear,160,2013-09-19 20:57:00
5:57 PM,77.0,53.1,43,30.11,10.0,South,3.5,-,N/A,,Clear,170,2013-09-19 21:57:00
6:57 PM,72.0,57.0,59,30.12,10.0,Calm,Calm,-,N/A,,Clear,0,2013-09-19 22:57:00
7:57 PM,69.1,55.0,61,30.12,10.0,Calm,Calm,-,N/A,,Clear,0,2013-09-19 23:57:00
8:57 PM,64.0,54.0,70,30.14,10.0,NE,3.5,-,N/A,,Clear,40,2013-09-20 00:57:00
9:57 PM,66.9,57.0,70,30.14,10.0,NNE,3.5,-,N/A,,Clear,30,2013-09-20 01:57:00
10:57 PM,66.0,57.9,75,30.12,10.0,NE,4.6,-,N/A,,Clear,50,2013-09-20 02:57:00
11:57 PM,66.0,59.0,78,30.11,10.0,NNE,3.5,-,N/A,,Clear,30,2013-09-20 03:57:00